Вернуться в каталог

DELTA 1 DEB

АктивенSSO
NORAD 19033·DEBRIS·🇺🇸 United States

Запущен Nov 6, 1973 с Vandenberg Space Force Base

Loading…

Ближайшие Пролёты (ближайшие 24 часа)

TLE

СвежийSource: Space-Track

Эпоха: Sep 14, 2026, 12:13 UTC

1 19033U 73086HC  26257.50954384  .00000295  00000-0  21315-2 0  9990
2 19033 101.9474 266.7235 0038426 322.8642 190.7267 12.53713816894971

Отслеживайте DELTA 1 DEB в реальном времени с AllMySat

Download on the App Store